Aérodrome :
LOGIN :

S'inscrire | Disclaimer

   EN    FR    IT 

 










Légende :    VFR   VFR Marginal   IFR   IFR Intensif   IFR Très Intensif
Visi : 
Plafond : 
>= 8 km
>= 3000ft
5 à 8 km
1000 à 3000 ft
1500m à 5 km
500 à 1000 ft
800 à 1500m
200 à 500 ft
< 800m
< 200 ft
Symboles :   Orages  Brouillard  Fortes neiges  Fortes précipitations  Vent > 20 kt
SIGMETs :   Divers  Orages  Givrage  Turbulence  Onde Orograph.  Cendres Volcan.






- Altitude de l'aérodrome : 392 ft
- Code IATA : CDG


LFPG - Paris-Aeroport Charles De Gaulle

DERNIER METAR :
  • 150330Z 01007KT 8000 NSC 02/M00 Q1029 NOSIG

METARs EXPIRÉS :
  • 150300Z 36007KT 8000 NSC 03/00 Q1029 NOSIG
  • 150230Z 02009KT 8000 NSC 03/00 Q1028 NOSIG
  • 150200Z 36009KT 360V140 8000 NSC 03/00 Q1028 NOSIG
  • 150130Z 01007KT 360V130 8000 NSC 03/00 Q1029 NOSIG
  • 150100Z 02007KT 8000 NSC 04/00 Q1029 NOSIG

TAF TAF LFPG
Valide du 15 à 00h jusqu'au 16 à 06h UTC


142300Z 1500/1606 02012KT 8000 NSC TX10/1515Z TN01/1505Z
BECMG 1506/1508 CAVOK
PROB40
TEMPO 1515/1518 VRB15G25KT 4000 -SHRA SCT040TCU
ATIS : +33 1 48 62 10 92



MET'MAP, la Météo Aéronautique d'un coup d'oeil ! - Copyright ORBIFLY Décembre 2007 - Disclaimer

ORBIFLY MET'MAP TEAM :

Programmation & Développement : Alexandra Zaïnal
Sur une idée originale de : Baudouin d'Aumeries
Assistance à la programmation : Marc-Olivier Méhu
Soutien technique & logistique : Manuel Goepfert

Contact : metmap@orbifly.com




SOURCES & CREDITS :

   NOAA